This demonstration page uses our WeatherBlox Daily Observations layout. Learn more.

Left ArrowRight Arrow

39.01783, -85.05884

Hourly Observations for February 24, 2016

Temp ( °F °C ) Dew Point ( °F °C ) Humidity (%) Winds ( mph kmh ) Pressure ( in mb ) Visibility ( mi km ) Precip ( " mm )
12:52 am 00:52 Cloudy with Rain 45 7.2 42 5.6 90 90 NE 16 26 29.64 1004 4 6 0.12 3.05
1:38 am 01:38 Cloudy with Rain 45 7 41 5 87 87 ENE 18 30 29.59 1002 4 6 N/A
1:52 am 01:52 Cloudy with Heavy Rain 44 6.7 37 3 78 78 NE 20 31 29.57 1001 3 5 0.13 3.30
2:37 am 02:37 Cloudy with Rain 45 7 41 5 87 87 ENE 21 33 29.53 1000 4 6 0.07 1.78
2:52 am 02:52 Cloudy with Rain 44 6.7 43 6 95 95 ENE 15 24 29.51 999 3 5 0.12 3.05
3:52 am 03:52 Cloudy with Heavy Rain 44 6.7 43 6 95 95 NE 16 26 29.43 997 2 3 0.18 4.57
4:08 am 04:08 Cloudy with Light Rain 45 7 43 6 93 93 ENE 13 20 29.47 998 5 8 N/A
4:52 am 04:52 Cloudy with Light Rain 45 7.2 45 7 99 99 NE 12 19 29.39 995 4 6 0.07 1.78
5:52 am 05:52 Cloudy with Light Rain 46 7.8 46 7.5 98 98 ENE 13 20 29.34 994 5 8 0.08 2.03
6:30 am 06:30 Cloudy with Light Rain 46 8 46 8 100 100 NE 15 24 29.35 994 5 8 N/A
6:52 am 06:52 Cloudy with Light Rain 48 8.9 47 8.3 96 96 ENE 10 17 29.29 992 6 10 0.10 2.54
7:07 am 07:07 Cloudy with Rain 46 8 46 8 100 100 ENE 16 26 29.29 992 2 3 0.02 0.51
7:36 am 07:36 Cloudy with Mist and Fog 48 9 46 8 94 94 ENE 14 22 29.29 992 2 2 0.06 1.52
7:52 am 07:52 Cloudy with Mist and Fog 49 9.4 48 8.9 97 97 E 8 13 29.25 990 2 2 0.06 1.52
8:23 am 08:23 Cloudy with Mist and Fog 52 11 48 9 88 88 E 15 24 29.23 990 6 10 N/A
8:39 am 08:39 Cloudy with Light Rain 52 11 50 10 94 94 ESE 10 17 29.23 990 8 13 N/A
8:52 am 08:52 Cloudy 51 10.6 50 10 96 96 E 10 17 29.22 989 8 13 N/A
9:10 am 09:10 Cloudy 52 11 50 10 94 94 E 7 11 29.23 990 8 13 N/A
9:52 am 09:52 Cloudy 53 11.7 51 10.6 93 93 E 6 9 29.21 989 10 16 0.01 0.25
10:21 am 10:21 Cloudy 54 12 52 11 94 94 SE 8 13 29.21 989 10 16 N/A
10:52 am 10:52 Cloudy with Light Rain 55 12.8 52 11.1 90 90 SE 10 17 29.19 989 10 16 N/A
11:30 am 11:30 Cloudy 55 13 54 12 94 94 SE 13 20 29.18 988 10 16 N/A
11:52 am 11:52 Mostly Cloudy 58 14.4 54 12.2 87 87 SSE 12 19 29.15 987 10 16 N/A
12:32 pm 12:32 Cloudy with Rain 57 14 52 11 82 82 S 21 33 29.15 987 2 3 N/A
12:37 pm 12:37 Mostly Cloudy with Rain 55 13 50 10 82 82 S 22 35 29.15 987 4 6 0.07 1.78
12:52 pm 12:52 Mostly Cloudy with Light Rain 56 13.3 51 10.6 84 84 S 12 19 29.15 987 10 16 0.08 2.03
1:52 pm 13:52 Cloudy 59 15 48 8.9 67 67 SSW 17 28 29.13 987 10 16 N/A
2:36 pm 14:36 Cloudy 52 11 46 8 82 82 SW 22 35 29.18 988 10 16 0.02 0.51
2:52 pm 14:52 Cloudy 50 10 44 6.7 80 80 SW 24 39 29.18 988 10 16 0.02 0.51
3:52 pm 15:52 Cloudy with Light Rain 45 7 39 4 81 81 SW 17 28 29.26 991 10 16 N/A
4:52 pm 16:52 Cloudy with Light Rain 44 6.7 38 3.3 79 79 SW 17 28 29.26 991 6 10 N/A
5:15 pm 17:15 Cloudy 45 7 36 2 71 71 SW 17 28 29.29 992 10 16 N/A
5:45 pm 17:45 Cloudy 45 7 36 2 71 71 SSW 16 26 29.32 993 10 16 N/A
5:52 pm 17:52 Cloudy with Light Rain 43 6.1 35 1.7 74 74 SW 10 17 29.28 991 10 16 N/A
6:52 pm 18:52 Cloudy with Light Rain 39 3.9 35 1.7 86 86 SW 15 24 29.31 993 8 13 0.01 0.25
7:24 pm 19:24 Cloudy with Light Rain 37 3 36 2 93 93 SW 13 20 29.35 994 8 13 0.02 0.51
7:52 pm 19:52 Cloudy with Light Rain 37 2.8 35 1.7 93 93 SSW 10 17 29.33 993 10 16 0.02 0.51
8:05 pm 20:05 Cloudy with Light Rain 37 3 36 2 93 93 SW 9 15 29.35 994 9 14 N/A
8:15 pm 20:15 Cloudy with Light Rain 37 3 36 2 93 93 SW 9 15 29.35 994 7 11 N/A
8:52 pm 20:52 Cloudy with Light Rain 36 2.2 35 1.7 97 97 W 17 28 29.35 994 7 11 0.02 0.51
9:39 pm 21:39 Cloudy with Light Snow 36 2 34 1 93 93 W 18 30 29.44 997 6 10 N/A
9:52 pm 21:52 Cloudy with Light Snow 34 1.1 33 0.6 97 97 W 17 28 29.39 995 3 5 N/A
10:07 pm 22:07 Cloudy with Light Snow 34 1 34 1 100 100 W 18 30 29.47 998 3 4 N/A
10:52 pm 22:52 Cloudy with Light Snow 34 1.1 32 undefined 92 92 W 17 28 29.44 997 3 4 0.02 0.51
11:52 pm 23:52 Windy with Snow Likely 34 1.1 32 undefined 92 92 W 22 35 29.48 998 4 6 N/A

Powered by AerisWeather